Time,TemperatureF,DewpointF,PressureIn,WindDirection,WindDirectionDegrees,WindSpeedMPH,WindSpeedGustMPH,Humidity,HourlyPrecipIn,Conditions,Clouds,dailyrainin,SolarRadiationWatts/m^2,SoftwareType,DateUTC
2013-05-02 00:12:00,28.0,16.0,-100.00,ENE,74,9.0,13.0,59,0.00,,,0.00,0.000000,,2013-05-02 06:12:00,
2013-05-02 00:21:00,28.0,16.0,-100.00,ENE,74,9.0,13.0,59,0.00,,,0.00,0.000000,,2013-05-02 06:21:00,
2013-05-02 00:31:00,28.0,16.0,-100.00,ENE,74,9.0,13.0,59,0.00,,,0.00,0.000000,,2013-05-02 06:31:00,
2013-05-02 00:42:00,28.0,16.0,-100.00,ENE,74,9.0,13.0,59,0.00,,,0.00,0.000000,,2013-05-02 06:42:00,
2013-05-02 00:51:00,28.0,16.0,-100.00,ENE,74,9.0,13.0,59,0.00,,,0.00,0.000000,,2013-05-02 06:51:00,
2013-05-02 01:11:00,27.0,15.0,-100.00,ENE,76,7.0,12.0,60,0.00,,,-99.99,0.000000,,2013-05-02 07:11:00,
2013-05-02 01:21:00,27.0,15.0,-100.00,ENE,76,7.0,12.0,60,0.00,,,-99.99,0.000000,,2013-05-02 07:21:00,
2013-05-02 01:31:00,27.0,15.0,-100.00,ENE,76,7.0,12.0,60,0.00,,,-99.99,0.000000,,2013-05-02 07:31:00,
2013-05-02 01:41:00,27.0,15.0,-100.00,ENE,76,7.0,12.0,60,0.00,,,-99.99,0.000000,,2013-05-02 07:41:00,
2013-05-02 01:51:00,27.0,15.0,-100.00,ENE,76,7.0,12.0,60,0.00,,,-99.99,0.000000,,2013-05-02 07:51:00,
2013-05-02 01:52:00,27.0,14.0,-100.00,East,96,10.0,15.0,57,0.00,,,0.00,0.000000,,2013-05-02 07:52:00,
2013-05-02 02:22:00,27.0,14.0,-100.00,East,96,10.0,15.0,57,0.00,,,0.00,0.000000,,2013-05-02 08:22:00,
2013-05-02 02:32:00,27.0,14.0,-100.00,East,96,10.0,15.0,57,0.00,,,0.00,0.000000,,2013-05-02 08:32:00,
2013-05-02 02:42:00,27.0,14.0,-100.00,East,96,10.0,15.0,57,0.00,,,0.00,0.000000,,2013-05-02 08:42:00,
2013-05-02 02:52:00,27.0,13.0,-100.00,ESE,108,14.0,18.0,55,0.00,,,-99.99,0.000000,,2013-05-02 08:52:00,
2013-05-02 03:21:00,27.0,13.0,-100.00,ESE,108,14.0,18.0,55,0.00,,,-99.99,0.000000,,2013-05-02 09:21:00,
2013-05-02 03:32:00,27.0,13.0,-100.00,ESE,108,14.0,18.0,55,0.00,,,-99.99,0.000000,,2013-05-02 09:32:00,
2013-05-02 03:42:00,27.0,13.0,-100.00,ESE,108,14.0,18.0,55,0.00,,,-99.99,0.000000,,2013-05-02 09:42:00,
2013-05-02 03:52:00,26.0,11.0,-100.00,ESE,115,15.0,19.0,53,-99.99,,,0.00,0.000000,,2013-05-02 09:52:00,
2013-05-02 04:22:00,26.0,11.0,-100.00,ESE,115,15.0,19.0,53,-99.99,,,0.00,0.000000,,2013-05-02 10:22:00,
2013-05-02 04:32:00,26.0,11.0,-100.00,ESE,115,15.0,19.0,53,-99.99,,,0.00,0.000000,,2013-05-02 10:32:00,
2013-05-02 04:42:00,26.0,11.0,-100.00,ESE,115,15.0,19.0,53,-99.99,,,0.00,0.000000,,2013-05-02 10:42:00,
2013-05-02 04:52:00,27.0,11.0,-100.00,East,86,14.0,21.0,50,-99.99,,,0.00,0.000000,,2013-05-02 10:52:00,
2013-05-02 05:22:00,27.0,11.0,-100.00,East,86,14.0,21.0,50,-99.99,,,0.00,0.000000,,2013-05-02 11:22:00,
2013-05-02 05:32:00,27.0,11.0,-100.00,East,86,14.0,21.0,50,-99.99,,,0.00,0.000000,,2013-05-02 11:32:00,
2013-05-02 05:42:00,27.0,11.0,-100.00,East,86,14.0,21.0,50,-99.99,,,0.00,0.000000,,2013-05-02 11:42:00,
2013-05-02 06:21:00,28.0,11.0,-100.00,ENE,69,13.0,19.0,48,-99.99,,,0.00,0.000000,,2013-05-02 12:21:00,
2013-05-02 06:32:00,28.0,11.0,-100.00,ENE,69,13.0,19.0,48,-99.99,,,0.00,0.000000,,2013-05-02 12:32:00,
2013-05-02 06:52:00,29.0,11.0,-100.00,ENE,76,13.0,16.0,46,-99.99,,,0.00,47.000000,,2013-05-02 12:52:00,
2013-05-02 07:21:00,29.0,11.0,-100.00,ENE,76,13.0,16.0,46,-99.99,,,0.00,47.000000,,2013-05-02 13:21:00,
2013-05-02 07:31:00,29.0,11.0,-100.00,ENE,76,13.0,16.0,46,-99.99,,,0.00,47.000000,,2013-05-02 13:31:00,
2013-05-02 07:41:00,29.0,11.0,-100.00,ENE,76,13.0,16.0,46,-99.99,,,0.00,47.000000,,2013-05-02 13:41:00,
2013-05-02 07:52:00,31.0,11.0,-100.00,ESE,111,11.0,16.0,43,0.00,,,0.00,228.000000,,2013-05-02 13:52:00,
2013-05-02 08:22:00,31.0,11.0,-100.00,ESE,111,11.0,16.0,43,0.00,,,0.00,228.000000,,2013-05-02 14:22:00,
2013-05-02 08:32:00,31.0,11.0,-100.00,ESE,111,11.0,16.0,43,0.00,,,0.00,228.000000,,2013-05-02 14:32:00,
2013-05-02 08:42:00,31.0,11.0,-100.00,ESE,111,11.0,16.0,43,0.00,,,0.00,228.000000,,2013-05-02 14:42:00,
2013-05-02 09:22:00,32.0,9.0,-100.00,East,86,9.0,14.0,38,0.00,,,0.00,461.000000,,2013-05-02 15:22:00,
2013-05-02 09:33:00,32.0,9.0,-100.00,East,86,9.0,14.0,38,0.00,,,0.00,461.000000,,2013-05-02 15:33:00,
2013-05-02 09:43:00,32.0,9.0,-100.00,East,86,9.0,14.0,38,0.00,,,0.00,461.000000,,2013-05-02 15:43:00,
2013-05-02 09:52:00,37.0,10.0,-100.00,ENE,58,5.0,11.0,32,0.00,,,0.00,687.000000,,2013-05-02 15:52:00,
2013-05-02 10:13:00,37.0,10.0,-100.00,ENE,58,5.0,11.0,32,0.00,,,0.00,687.000000,,2013-05-02 16:13:00,
2013-05-02 10:22:00,37.0,10.0,-100.00,ENE,58,5.0,11.0,32,0.00,,,0.00,687.000000,,2013-05-02 16:22:00,
2013-05-02 10:32:00,37.0,10.0,-100.00,ENE,58,5.0,11.0,32,0.00,,,0.00,687.000000,,2013-05-02 16:32:00,
2013-05-02 10:43:00,37.0,10.0,-100.00,ENE,58,5.0,11.0,32,0.00,,,0.00,687.000000,,2013-05-02 16:43:00,
2013-05-02 11:12:00,43.0,10.0,-100.00,East,87,6.0,12.0,26,0.00,,,0.00,866.000000,,2013-05-02 17:12:00,
2013-05-02 11:22:00,43.0,10.0,-100.00,East,87,6.0,12.0,26,0.00,,,0.00,866.000000,,2013-05-02 17:22:00,
2013-05-02 11:31:00,43.0,10.0,-100.00,East,87,6.0,12.0,26,0.00,,,0.00,866.000000,,2013-05-02 17:31:00,
2013-05-02 11:42:00,43.0,10.0,-100.00,East,87,6.0,12.0,26,0.00,,,0.00,866.000000,,2013-05-02 17:42:00,
2013-05-02 11:51:00,43.0,10.0,-100.00,East,87,6.0,12.0,26,0.00,,,0.00,866.000000,,2013-05-02 17:51:00,
2013-05-02 12:21:00,43.0,10.0,-100.00,East,91,8.0,13.0,25,0.00,,,0.00,1007.000000,,2013-05-02 18:21:00,
2013-05-02 12:31:00,43.0,10.0,-100.00,East,91,8.0,13.0,25,0.00,,,0.00,1007.000000,,2013-05-02 18:31:00,
2013-05-02 12:41:00,43.0,10.0,-100.00,East,91,8.0,13.0,25,0.00,,,0.00,1007.000000,,2013-05-02 18:41:00,
2013-05-02 12:51:00,43.0,10.0,-100.00,East,91,8.0,13.0,25,0.00,,,0.00,1007.000000,,2013-05-02 18:51:00,
2013-05-02 12:52:00,47.0,11.0,-100.00,ENE,63,8.0,17.0,23,0.00,,,0.00,1089.000000,,2013-05-02 18:52:00,
2013-05-02 13:21:00,47.0,11.0,-100.00,ENE,63,8.0,17.0,23,0.00,,,0.00,1089.000000,,2013-05-02 19:21:00,
2013-05-02 13:31:00,47.0,11.0,-100.00,ENE,63,8.0,17.0,23,0.00,,,0.00,1089.000000,,2013-05-02 19:31:00,
2013-05-02 13:41:00,47.0,11.0,-100.00,ENE,63,8.0,17.0,23,0.00,,,0.00,1089.000000,,2013-05-02 19:41:00,
2013-05-02 13:52:00,49.0,10.0,-100.00,ENE,72,9.0,19.0,20,0.00,,,0.00,1125.000000,,2013-05-02 19:52:00,
2013-05-02 14:22:00,49.0,10.0,-100.00,ENE,72,9.0,19.0,20,0.00,,,0.00,1125.000000,,2013-05-02 20:22:00,
2013-05-02 14:32:00,49.0,10.0,-100.00,ENE,72,9.0,19.0,20,0.00,,,0.00,1125.000000,,2013-05-02 20:32:00,
2013-05-02 14:41:00,49.0,10.0,-100.00,ENE,72,9.0,19.0,20,0.00,,,0.00,1125.000000,,2013-05-02 20:41:00,
2013-05-02 14:52:00,51.0,12.0,-100.00,ENE,78,7.0,22.0,21,0.00,,,0.00,1072.000000,,2013-05-02 20:52:00,
2013-05-02 15:21:00,51.0,12.0,-100.00,ENE,78,7.0,22.0,21,0.00,,,0.00,1072.000000,,2013-05-02 21:21:00,
2013-05-02 15:33:00,51.0,12.0,-100.00,ENE,78,7.0,22.0,21,0.00,,,0.00,1072.000000,,2013-05-02 21:33:00,
2013-05-02 15:42:00,51.0,12.0,-100.00,ENE,78,7.0,22.0,21,0.00,,,0.00,1072.000000,,2013-05-02 21:42:00,
2013-05-02 15:52:00,53.0,13.0,-100.00,ENE,73,10.0,23.0,20,0.00,,,0.00,983.000000,,2013-05-02 21:52:00,
2013-05-02 16:12:00,53.0,13.0,-100.00,ENE,73,10.0,23.0,20,0.00,,,0.00,983.000000,,2013-05-02 22:12:00,
2013-05-02 16:22:00,53.0,13.0,-100.00,ENE,73,10.0,23.0,20,0.00,,,0.00,983.000000,,2013-05-02 22:22:00,
2013-05-02 16:32:00,53.0,13.0,-100.00,ENE,73,10.0,23.0,20,0.00,,,0.00,983.000000,,2013-05-02 22:32:00,
2013-05-02 16:42:00,53.0,13.0,-100.00,ENE,73,10.0,23.0,20,0.00,,,0.00,983.000000,,2013-05-02 22:42:00,
2013-05-02 17:11:00,51.0,12.0,-100.00,ESE,102,9.0,20.0,21,0.00,,,0.00,677.000000,,2013-05-02 23:11:00,
2013-05-02 17:22:00,51.0,12.0,-100.00,ESE,102,9.0,20.0,21,0.00,,,0.00,677.000000,,2013-05-02 23:22:00,
2013-05-02 17:32:00,51.0,12.0,-100.00,ESE,102,9.0,20.0,21,0.00,,,0.00,677.000000,,2013-05-02 23:32:00,
2013-05-02 17:42:00,51.0,12.0,-100.00,ESE,102,9.0,20.0,21,0.00,,,0.00,677.000000,,2013-05-02 23:42:00,
2013-05-02 17:51:00,51.0,12.0,-100.00,ESE,102,9.0,20.0,21,0.00,,,0.00,677.000000,,2013-05-02 23:51:00,
2013-05-02 17:52:00,52.0,14.0,-100.00,ESE,105,10.0,21.0,22,0.00,,,0.00,631.000000,,2013-05-02 23:52:00,
2013-05-02 18:21:00,52.0,14.0,-100.00,ESE,105,10.0,21.0,22,0.00,,,0.00,631.000000,,2013-05-03 00:21:00,
2013-05-02 18:31:00,52.0,14.0,-100.00,ESE,105,10.0,21.0,22,0.00,,,0.00,631.000000,,2013-05-03 00:31:00,
2013-05-02 18:41:00,52.0,14.0,-100.00,ESE,105,10.0,21.0,22,0.00,,,0.00,631.000000,,2013-05-03 00:41:00,
2013-05-02 19:11:00,52.0,15.0,-100.00,East,93,9.0,16.0,23,0.00,,,0.00,397.000000,,2013-05-03 01:11:00,
2013-05-02 19:21:00,52.0,15.0,-100.00,East,93,9.0,16.0,23,0.00,,,0.00,397.000000,,2013-05-03 01:21:00,
2013-05-02 19:31:00,52.0,15.0,-100.00,East,93,9.0,16.0,23,0.00,,,0.00,397.000000,,2013-05-03 01:31:00,
2013-05-02 19:41:00,52.0,15.0,-100.00,East,93,9.0,16.0,23,0.00,,,0.00,397.000000,,2013-05-03 01:41:00,
2013-05-02 19:51:00,52.0,15.0,-100.00,East,93,9.0,16.0,23,0.00,,,0.00,397.000000,,2013-05-03 01:51:00,
2013-05-02 19:52:00,51.0,16.0,-100.00,South,175,0.0,11.0,24,0.00,,,0.00,161.000000,,2013-05-03 01:52:00,
2013-05-02 20:11:00,51.0,16.0,-100.00,South,175,0.0,11.0,24,0.00,,,0.00,161.000000,,2013-05-03 02:11:00,
2013-05-02 20:21:00,51.0,16.0,-100.00,South,175,0.0,11.0,24,0.00,,,0.00,161.000000,,2013-05-03 02:21:00,
2013-05-02 20:31:00,51.0,16.0,-100.00,South,175,0.0,11.0,24,0.00,,,0.00,161.000000,,2013-05-03 02:31:00,
2013-05-02 20:41:00,51.0,16.0,-100.00,South,175,0.0,11.0,24,0.00,,,0.00,161.000000,,2013-05-03 02:41:00,
2013-05-02 20:52:00,46.0,15.0,-100.00,SSE,149,5.0,8.0,28,-99.99,,,0.00,13.000000,,2013-05-03 02:52:00,
2013-05-02 21:21:00,46.0,15.0,-100.00,SSE,149,5.0,8.0,28,-99.99,,,0.00,13.000000,,2013-05-03 03:21:00,
2013-05-02 21:33:00,46.0,15.0,-100.00,SSE,149,5.0,8.0,28,-99.99,,,0.00,13.000000,,2013-05-03 03:33:00,
2013-05-02 21:42:00,46.0,15.0,-100.00,SSE,149,5.0,8.0,28,-99.99,,,0.00,13.000000,,2013-05-03 03:42:00,
2013-05-02 21:52:00,43.0,11.0,-100.00,ESE,110,6.0,8.0,27,0.00,,,0.00,0.000000,,2013-05-03 03:52:00,
2013-05-02 22:12:00,43.0,11.0,-100.00,ESE,110,6.0,8.0,27,0.00,,,0.00,0.000000,,2013-05-03 04:12:00,
2013-05-02 22:22:00,43.0,11.0,-100.00,ESE,110,6.0,8.0,27,0.00,,,0.00,0.000000,,2013-05-03 04:22:00,
2013-05-02 22:42:00,43.0,11.0,-100.00,ESE,110,6.0,8.0,27,0.00,,,0.00,0.000000,,2013-05-03 04:42:00,
2013-05-02 23:21:00,45.0,11.0,-100.00,SE,132,6.0,10.0,25,-99.99,,,0.00,0.000000,,2013-05-03 05:21:00,